Location: Mexico
(19.4000°N, 99.1500°W)
Time: 06:13:13
(UTC-06:00)

ISS - Pass Details

Date: 12 December 2019
Orbit: 411 x 421 km, 51.6° (Epoch: 11 December)

Event Time Altitude Azimuth Distance (km) Brightness Sun altitude
Rises 19:14:28 0° 315° (NW) 2,350 0.4 -17.2°
Reaches altitude 10° 19:16:35 10° 310° (NW) 1,488 -0.6 -17.7°
Maximum altitude 19:19:50 52° 233° (SW) 524 -3.0 -18.4°
Drops below altitude 10° 19:23:06 10° 156° (SSE) 1,488 -1.0 -19.1°
Enters shadow 19:23:25 - 154° (SSE) 1,615 -0.9 -19.2°
